Preview of NWS' New Version of Forecast
This preview is not operational and should not be used for support decisions.
Latest weather observations around

New York City, Central Park (KNYC)

Using English Units (Switch to International System of Units)
Date/ Time (EDT) Wind (mph) Vis. (mi) Weather Sky Cond. Temp (°F) Rel. Humidity Wind Chill (°F) Heat Index (°F) Pressure Precip. (in)
Air Dwpt 6 hour Altimeter (inHg) Sea level (inHg) 1 hr 3 hr 6 hr
Max Min
Sep 20 16:51 WSW 6 10 Clear CLR 77 45     32%   76 30.18 30.15      
Sep 20 15:51 5 10 Clear CLR 78 43     29%   77 30.19 30.16      
Sep 20 14:51 6 10 Clear CLR 77 43     30%   76 30.2 30.17      
Sep 20 13:51 6 10 Clear CLR 76 43     31%   75 30.22 30.19      
Sep 20 12:51 6 10 Clear CLR 74 45     36%   73 30.24 30.22      
Sep 20 11:51 7 10 Clear CLR 72 44     37%   71 30.26 30.24      
Sep 20 10:51 5 10 Clear CLR 68 45     43%     30.29 30.26      
Sep 20 09:51 W 7 10 Clear CLR 64 44     48%     30.3 30.28      
Sep 20 08:51 6 10 Clear CLR 60 44     55%     30.31 30.28      
Sep 20 07:51 W 6 10 Clear CLR 58 46     65%     30.31 30.28      
Sep 20 06:51 WNW 5 10 Clear CLR 57 46     67%     30.29 30.27      
Sep 20 05:51 W 3 10 Clear CLR 56 47     72%     30.28 30.26      
Sep 20 04:51 W 5 10 Clear CLR 57 48     72%     30.28 30.25      
Sep 20 03:51 W 3 10 Clear CLR 58 48     70%     30.28 30.25      
Sep 20 02:51 WSW 7 10 Clear CLR 59 44     58%     30.28 30.25      
Sep 20 01:51 6 10 Clear CLR 59 42     53%     30.29 30.27      
Sep 20 00:51 5 10 Clear CLR 59 46     62%     30.29 30.27      
Sep 19 23:51 3 10 Clear CLR 61 45     56%     30.3 30.27      
Sep 19 22:51 WSW 5 10 Clear CLR 61 50     67%     30.3 30.27      
Sep 19 21:51 Calm 10 Clear CLR 61 48     62%     30.3 30.27      
Sep 19 20:51 Calm 10 Clear CLR 62 45     53%     30.3 30.27      
Sep 19 19:51 Calm 10 Clear CLR 62 41     46%     30.31 30.29      
Sep 19 18:51 Calm 10 Clear CLR 64 37     37%     30.32 30.29      
Sep 19 17:51 Calm 10 Clear CLR 66 31     27%     30.32 30.29      
Sep 19 16:51 Calm 10 Clear CLR 68 26     21%     30.32 30.29      
Sep 19 15:51 NE 5 10 Clear CLR 69        %     30.33 30.3      
Sep 19 14:51 6 10 Clear CLR 68        %     30.34 30.31      
Sep 19 13:51 Calm 10 Clear CLR 68 30     24%     30.35 30.32      
Sep 19 12:51 5 10 Clear CLR 67 34     29%     30.36 30.33      
Sep 19 11:51 3 10 Clear CLR 65 39     38%     30.38 30.35      
Sep 19 10:51 Calm 10 Clear CLR 61 40     46%     30.39 30.37      
Sep 19 09:51   10 Clear CLR 60 42     51%     30.4 30.37      
Sep 19 08:51 7 10 Clear CLR 57 42     57%     30.39 30.36      
Sep 19 07:51 5 10 Clear CLR 55 41     59%     30.38 30.35      
Sep 19 06:51 NNE 5 10 Clear CLR 52 40     63%     30.37 30.34      
Sep 19 05:51 NNE 3 10 Clear CLR 53 39     59%     30.36 30.33      
Sep 19 04:51 NNE 5 10 Clear CLR 52 42     69%     30.34 30.32      
Sep 19 03:51 NNE 5 10 Clear CLR 53 43     69%     30.35 30.32      
Sep 19 02:51 NNE 5 10 Clear CLR 55 43     64%     30.35 30.32      
Sep 19 01:51 5 10 Clear CLR 56 43     62%     30.35 30.33      
Sep 19 00:51 7 10 Clear CLR 58 44     60%     30.35 30.32      
Sep 18 23:51 E 8 10 Clear CLR 60 43     53%     30.34 30.31      
Sep 18 22:51 7 10 Clear CLR 61 44     54%     30.33 30.3      
Sep 18 21:51 7 10 Clear CLR 63 43     48%     30.32 30.29      
Sep 18 20:51 3 10 Clear CLR 61 46     58%     30.31 30.28      
Sep 18 19:51 5 10 Clear CLR 63 44     50%     30.29 30.26      
Sep 18 18:51 ENE 9 10 Clear CLR 64 45     50%     30.27 30.24      
Sep 18 17:51 NE 7 10 Clear CLR 66 46     48%     30.27 30.24      
Sep 18 16:51 E 7 10 Clear CLR 67 47     49%     30.27 30.24      
Sep 18 15:51 ENE 7 10 Mostly Cloudy BKN060 68 48     49%     30.27 30.24      
Sep 18 14:51 ENE 6 10 Partly Cloudy FEW039 SCT050 66 49     54%     30.26 30.23      
Sep 18 13:51 5 10 Cloudy BKN037 OVC043 67 49     52%     30.26 30.23      
Sep 18 12:51 6 10 Mostly Cloudy SCT035 BKN046 67 49     52%     30.27 30.24      
Notice The following observation data may not be complete
Sep 18 11:51   10 Mostly Cloudy BKN031 BKN042 BKN050          %              
Sep 18 09:51 NE 8 10 Clear CLR 64 49     58%     30.28 30.25      
Sep 18 08:51 3 10 Mostly Cloudy FEW019 BKN042 62 50     65%     30.27 30.24      
Sep 18 07:51 NNE 6 10 Mostly Cloudy BKN037 60 49     67%     30.26 30.23      
Sep 18 07:04 6 10 Cloudy FEW018 SCT026 OVC033 60 50     69%     30.25        
Sep 18 06:51 NE 7 10 Mostly Cloudy FEW018 BKN026 60 50     69%     30.24 30.21      
Sep 18 05:51 NE 8 10 Mostly Cloudy BKN015 BKN029 BKN035 61 53     75%     30.21 30.19      
Sep 18 04:51 6 10 Mostly Cloudy BKN025 62 55     78%     30.2 30.17      
Sep 18 04:26 NE 7 10 Mostly Cloudy BKN026 62 55     78%     30.2        
Sep 18 03:51 NE 6 10 Clear CLR 61 54     78%     30.2 30.17      
Sep 18 02:51 ENE 6 10 Clear CLR 61 54     78%     30.19 30.16      
Sep 18 01:51 Calm 10 Clear CLR 62 53     72%     30.19 30.16      
Sep 18 00:51 5 10 Clear CLR 64 54     70%     30.18 30.16      
Sep 17 23:51 3 10 Clear CLR 64 52     65%     30.18 30.15      
Sep 17 22:51 5 10 Clear   65 48     54%     30.18 30.15      
Sep 17 21:51 Calm 10 Clear CLR 66 46     48%     30.17 30.14      
Sep 17 20:51 Calm 10 Clear CLR 67 47     49%     30.16 30.14      
Sep 17 19:51 7 10 Clear CLR 69 38     32%     30.15 30.12      
Sep 17 18:51 NE 8 10 Clear CLR 72 33     24%   70 30.13 30.11      
Sep 17 17:51 5 10 Clear CLR 73 39     29%   71 30.12 30.09      
Sep 17 16:51 NE 10 10 Clear CLR 75 39     27%   74 30.12 30.09      
Sep 17 15:51 Calm 10 Clear CLR 75 41     29%   74 30.12 30.09      
May 15 02:51 Calm 6 Fog/Mist OVC007 61 58     90%     29.92 29.89      
May 14 21:33 5 8 Clear   60 56     86%     29.95        
May 14 05:51 Calm 4 Fog/Mist OVC007 53 51     93%     30.04 30.02      
May 13 16:08 SSE 8 6 Fog/Mist OVC010 53 52     96%     30.14        
May 13 14:51 Calm 5 Light Rain and Fog/Mist OVC007 52 51     97%     30.15 30.13 0    
May 13 13:51 Calm 3 Light Rain and Fog/Mist OVC007 52 50     93%     30.19 30.16 0   0
May 12 14:51 ENE 5 9 Cloudy OVC016 58 52     81%     30.08 30.05      
May 12 00:51 5 10 Light Rain FEW065 OVC085 63 37     38%     30.15 30.12 0    
May 11 09:51   10 Clear CLR 64 38     38%     30.02 30      
Jun 12 03:51 5 10 Clear CLR 77 63     62%   77 30.03 30      
Jun 11 19:51 W 10 10 Clear CLR 88 59     38%   87 30.02 29.98      
Jun 11 17:51 5 10 Clear CLR 89 60     38%   89 30.01 29.98      
Jun 11 10:51 5 10 Clear CLR 84 61     46%   84 30.09 30.06      
Jun 10 07:51 WNW 5 10 Clear CLR 69 53     57%     30.01 29.98      
Jun 09 22:51 5 10 Clear CLR 74 50     43%   73 29.89 29.87      
Jun 08 10:51 5 10 Clear CLR 67 55     66%     30.04 30.01      
Jun 06 12:21 ENE 5 2 Fog/Mist OVC010 55 53     93%     29.81